This is the latest recevied weather packets stored in our database for station/object KJ5EHN. If no packets are shown the sender has not sent any weather packets the latest 10 day(s).
| Time | Temp. | Humidity | Pressure | Rain* | Wind** | Luminosity | Snow |
|---|---|---|---|---|---|---|---|
| 1778012052 | 30° C | 60% | 1004.7 hPa | 0 mm | - | - | - |
| 1778011750 | 30° C | 60% | 1004.5 hPa | 0 mm | - | - | - |
| 1778011447 | 29.44° C | 60% | 1004.7 hPa | 0 mm | - | - | - |
| 1778011142 | 30° C | 60% | 1004.5 hPa | 0 mm | - | - | - |
| 1778010840 | 30.56° C | 59% | 1004.6 hPa | 0 mm | - | - | - |
| 1778010536 | 30.56° C | 58% | 1004.5 hPa | 0 mm | - | - | - |
| 1778010235 | 30° C | 60% | 1004.6 hPa | 0 mm | - | - | - |
| 1778009934 | 30° C | 58% | 1004.6 hPa | 0 mm | - | - | - |
| 1778009633 | 30° C | 59% | 1004.7 hPa | 0 mm | - | - | - |
| 1778009330 | 29.44° C | 58% | 1004.6 hPa | 0 mm | - | - | - |
| 1778009028 | 30.56° C | 55% | 1004.7 hPa | 0 mm | - | - | - |
| 1778008725 | 30° C | 58% | 1004.6 hPa | 0 mm | - | - | - |
| 1778008424 | 30° C | 57% | 1004.2 hPa | 0 mm | - | - | - |
| 1778008120 | 29.44° C | 58% | 1004.3 hPa | 0 mm | - | - | - |
| 1778007816 | 30° C | 60% | 1004.4 hPa | 0 mm | - | - | - |
| 1778007512 | 29.44° C | 60% | 1004.3 hPa | 0 mm | - | - | - |
| 1778007208 | 29.44° C | 60% | 1004.5 hPa | 0 mm | - | - | - |
| 1778006904 | 28.89° C | 61% | 1004.5 hPa | 0 mm | - | - | - |
| 1778006602 | 28.89° C | 61% | 1004.4 hPa | 0 mm | - | - | - |
| 1778006299 | 28.89° C | 62% | 1004.6 hPa | 0 mm | - | - | - |
| 1778005995 | 28.89° C | 62% | 1004.6 hPa | 0 mm | - | - | - |
| 1778005692 | 28.89° C | 63% | 1004.4 hPa | 0 mm | - | - | - |
| 1778005389 | 28.33° C | 63% | 1004.6 hPa | 0 mm | - | - | - |
| 1778005086 | 28.33° C | 64% | 1004.7 hPa | 0 mm | - | - | - |
| 1778004783 | 28.33° C | 64% | 1004.6 hPa | 0 mm | - | - | - |
* Rain latest hour (hover to see other rain measurements)
** Current wind speed in m/s (hover to see current wind gust speed)